Regional Weather Roundup
Issued by NWS Cleveland, OH

Home | Current Version | Previous Version | Text Only | Print | Product List | Glossary Off
Versions: 1 2 3 4 5 6 7 8 9 10 11 12 13 14 15 16 17 18 19 20 21 22 23 24 25 26 27 28 29 30 31 32 33 34 35 36 37 38 39 40 41 42 43 44 45 46 47 48 49 50

000
ASUS41 KCLE 042310
RWRCLE
OHIO REGIONAL WEATHER ROUNDUP
NATIONAL WEATHER SERVICE CLEVELAND, OH
700 PM EDT MON MAY 04 2015

NOTE: "FAIR" INDICATES FEW OR NO CLOUDS BELOW 12,000 FEET WITH NO
SIGNIFICANT WEATHER AND/OR OBSTRUCTIONS TO VISIBILITY.

OHZ001>008-015>018-024>027-034-035-043-044-050000-
   NORTHWEST OHIO

CITY           SKY/WX    TMP DP  RH WIND       PRES   REMARKS
DEFIANCE       PTSUNNY   70  61  73 SW6       30.14S
FINDLAY        PTSUNNY   67  60  78 SW7       30.15F
TOLEDO EXPRESS PTSUNNY   70  60  70 SW12      30.12S
TOLEDO EXEC    PTSUNNY   71  58  63 SW15      30.14S
LIMA           CLOUDY    65  60  84 S3        30.16F
$$

OHZ009>014-019>023-028>033-038-089-050000-
   NORTHEAST OHIO

CITY           SKY/WX    TMP DP  RH WIND       PRES   REMARKS
CLE-HOPKINS    LGT RAIN  66  60  81 SW10      30.17S
CLE-LAKEFRONT  CLOUDY    68  59  73 SW9       30.14R
CUY CO. ARPT   CLOUDY    68  63  83 W9        30.16S
LORAIN-ELYRIA  CLOUDY    67  58  72 W13       30.16S
ASHTABULA      CLOUDY    65  57  75 SW9       30.16S
AKRON-CANTON   LGT RAIN  65  59  81 W12       30.20R
WOOSTER        LGT RAIN  63  60  90 W7        30.19S
MANSFIELD      CLOUDY    63  61  93 SW3       30.19S
YOUNGSTOWN     LGT RAIN  65  58  78 NW13G22   30.18R
$$

OHZ042-051>053-060>062-070>072-077>081-050000-
  SOUTHWEST OHIO

CITY           SKY/WX    TMP DP  RH WIND       PRES   REMARKS
CINC-COVINGTON CLOUDY    77  57  50 SW6       30.16S
CINC-LUNKEN    PTSUNNY   77  61  57 CALM      30.15S
HAMILTON       PTSUNNY   78  58  49 SW3       30.16F
DAYTON         CLOUDY    74  58  57 W10       30.18R
WRIGHT-PAT AFB PTSUNNY   75  57  53 SW8       30.16S
DAYTON GENERAL PTSUNNY   76  56  49 SW7       30.16S
WILMINGTON     PTSUNNY   75  55  49 W7        30.17S
$$

OHZ036-037-039>041-045>050-054>059-063>069-073>076-082>088-050000-
  CENTRAL AND SOUTHEAST OHIO

CITY           SKY/WX    TMP DP  RH WIND       PRES   REMARKS
COLUMBUS       RAIN      70  59  68 NW20G25   30.18R
OSU AIRPORT    RAIN      64  60  87 N3        30.18R FOG
BOLTON FIELD   CLOUDY    73  61  64 NW12G20   30.17S
RICKENBACK AFB CLOUDY    73  58  59 W6        30.16S
NEWARK         CLOUDY    71  61  70 CALM      30.17R
MARION         LGT RAIN  64  60  87 CALM      30.18S FOG
LANCASTER      CLOUDY    71  62  73 CALM      30.17S
ZANESVILLE     LGT RAIN  65  58  78 W6        30.19R
NEW PHILLY     LGT RAIN  67  62  84 CALM      30.19S
$$


USA.gov is the U.S. government's official web portal to all federal, state and local government web resources and services.